Simultaneous Nadir Overpasses (SNOs) Predictions

Prediction of SNOs between TERRA and METOP-C Satellite Orbit:

Table of predicted SNOs for the next 14.0 days since TLE Epoch: 10/5/2024
Index Date (TERRA) Time (TERRA) Lat,Lon (TERRA) SZA (TERRA ) Date (METOP-C) Time (METOP-C) Lat,Lon (METOP-C) SZA (METOP-C ) Distance(km) Time Diff (sec)
1 10/07/2024 07:00:59 69.85, 62.27 75.73 10/07/2024 07:00:13 69.85, 62.25 75.74 0.77 46
2 10/07/2024 07:49:40 -72.13,-126.58 102.14 10/07/2024 07:50:11 -72.13,-126.56 102.14 0.88 31
3 10/09/2024 21:30:48 70.38,-154.53 77.20 10/09/2024 21:30:18 70.39,-154.47 77.22 2.32 30
4 10/09/2024 22:19:40 -72.06, 15.75 101.22 10/09/2024 22:20:28 -72.05, 15.73 101.23 1.00 48
5 10/12/2024 12:00:44 70.37, -12.07 78.16 10/12/2024 12:00:33 70.36, -12.07 78.16 0.19 11
6 10/12/2024 12:49:35 -72.10, 158.30 100.21 10/12/2024 12:50:42 -72.09, 158.23 100.23 2.63 67
7 10/15/2024 01:42:07 -67.68, -40.64 103.35 10/15/2024 01:40:58 -67.67, -40.68 103.33 2.18 69
8 10/15/2024 02:30:37 70.36, 130.40 79.11 10/15/2024 02:30:47 70.35, 130.34 79.11 2.47 10
9 10/17/2024 16:11:39 -68.63, 102.96 101.54 10/17/2024 16:10:52 -68.63, 102.99 101.53 1.30 47



Historial Predications of SNOs between TERRA and METOP-C
